Hourly Data Report for September 16, 2017

All times are specified in Local Standard Time (LST). Add 1 hour to adjust for Daylight Saving Time where and when it is observed.

FISHER BRANCH (AUT)
MANITOBA

51°05'00.100" N
97°33'16.200" W
253.00 m
50309J6
71442
WSZ

Download Data

Hourly Data (September 2017)
Hourly Data Report for September 16, 2017
Temp Definition
°C
Dew Point Temp Definition
°C
Rel Hum Definition
%
Wind Dir Definition
10's deg

Wind Spd Definition
km/h
Visibility Definition
km
Stn Press Definition
kPa
Hmdx Definition


Wind Chill Definition


Weather Definition


TIME
00:00 8.5 6.3 86 5 13   98.92     LegendNANA
01:00 8.1 6.7 91 6 7   98.86     LegendNANA
02:00 7.8 6.8 93 32 5   98.92     LegendNANA
03:00 8.1 6.8 92 1 5   98.95     LegendNANA
04:00 8.0 6.7 91 4 11   98.92     LegendNANA
05:00 7.9 6.3 90 4 11   98.90     LegendNANA
06:00 7.9 6.6 92 2 5   98.90     LegendNANA
07:00 8.3 6.4 88 3 13   98.87     LegendNANA
08:00 8.6 6.1 85 2 9   98.89     LegendNANA
09:00 9.7 6.0 78 2 13   98.84     LegendNANA
10:00 10.4 5.7 72 4 14   98.87     LegendNANA
11:00 10.8 4.7 66 3 16   98.88     LegendNANA
12:00 10.9 4.4 64 3 19   98.84     LegendNANA
13:00 11.5 3.9 60 4 20   98.78     LegendNANA
14:00 11.4 4.2 62 3 17   98.71     LegendNANA
15:00 11.4 4.0 60 4 15   98.67     LegendNANA
16:00 10.9 4.0 62 5 26   98.64     LegendNANA
17:00 9.7 5.4 74 6 22   98.63     LegendNANA
18:00 8.0 6.6 91 4 14   98.64     LegendNANA
19:00 7.6 6.8 95 1 5   98.64     LegendNANA
20:00 7.3 6.7 96 36 6   98.63     LegendNANA
21:00 7.3 6.6 96 1 8   98.54     LegendNANA
22:00 7.1 6.5 96 36 6   98.49     LegendNANA
23:00 7.0 6.4 96 2 7   98.39     LegendNANA

Notes on Data Quality.

Legend

  • E = Estimated
  • M = Missing
  • NA = Not Available
  • ‡ = Partner data that is not subject to review by the National Climate Archives
Date modified: